Regional Weather Roundup
Issued by NWS Charleston, SC

Current Version | Previous Version | Graphics & Text | Print | Product List | Glossary On
Versions: 1 2 3 4 5 6 7 8 9 10 11 12 13 14 15 16 17 18 19 20 21 22 23 24 25 26 27 28 29 30 31 32 33 34 35 36 37 38 39 40 41 42 43 44 45 46 47 48 49 50
000
ASUS42 KCHS 280711
RWRCHS

REGIONAL WEATHER ROUNDUP
NATIONAL WEATHER SERVICE CHARLESTON SC
300 AM EDT SAT MAR 28 2015

NOTE: "FAIR" INDICATES FEW OR NO CLOUDS BELOW 12,000 FEET WITH NO
SIGNIFICANT WEATHER AND/OR OBSTRUCTIONS TO VISIBILITY.

NOT ALL STATIONS ARE QUALITY CONTROLLED BY THE NATIONAL
WEATHER SERVICE. USE DATA WITH CAUTION...ESPECIALLY
DEWPOINT OBSERVATIONS.

SCZ027-030-031-034>040-042>050-280800-
...SOUTHEAST SOUTH CAROLINA...

CITY           SKY/WX    TMP DP  RH WIND       PRES   REMARKS
N CHARLESTON   CLEAR     46  44  93 W3        29.91R
WATERFRONT PRK   N/A     48 N/A N/A NW6         N/A
MOUNT PLEASANT FAIR      45  45 100 CALM      29.90R
PINOPOLIS        N/A     52  43  71 NW9       29.83R
MONCKS CORNER  FAIR      46  43  87 CALM      29.91R
SUMMERVILLE    FAIR      45  43  93 W3        29.93R
BEAUFORT MCAS  PTCLDY    47  43  86 W8        29.95R
BEAUFORT ARPT  FAIR      48  45  87 W5        29.94R
HILTON HEAD IS PTCLDY    50  45  81 W5        29.96R
WALTERBORO     SUNNY     43  41  93 W3        29.94R
ALLENDALE      CLOUDY    46  43  87 VRB3      29.94S

...SOUTHERN MIDLANDS AND PEE DEE...

CITY           SKY/WX    TMP DP  RH WIND       PRES   REMARKS
GEORGETOWN     NOT AVBL
KINGSTREE      NOT AVBL
ORANGEBURG     CLOUDY    46  41  82 NW6       29.93R
BARNWELL       FAIR      45  43  93 W5        29.96R
AIKEN          FAIR      39  37  93 W3        29.98R
MANNING        LGT SNOW  41  34  75 CALM      29.91S
COLUMBIA       CLOUDY    46  35  65 NW13      29.93S
SUMTER         MOCLDY    45  43  93 W8        29.90R
FLORENCE       CLOUDY    46  43  89 NW3       29.88F
MYRTLE BEACH   CLOUDY    46  41  81 W6        29.90S
N MYRTLE BEACH CLOUDY    45  42  89 CALM      29.87R

$$

GAZ063-065-086>088-099>101-113>116-118-119-134>141-150-280800-
...SOUTHEAST GEORGIA...

CITY           SKY/WX    TMP DP  RH WIND       PRES   REMARKS
SAVANNAH ARPT  CLEAR     48  42  80 NW6       29.96R
HUNTER AAF     CLEAR     49  45  87 NW7       29.94R
FORT STEWART   PTCLDY    49  33  53 W6        29.96R
STATESBORO     CLEAR     47  42  85 NW7       29.97R
SYLVANIA       MOSUNNY   44  43  99 NW3       29.97R
CLAXTON        FAIR      50  34  53 W7        29.98R

...CSRA...CENTRAL AND FAR SOUTHEAST GEORGIA...

CITY           SKY/WX    TMP DP  RH WIND       PRES   REMARKS
THOMSON        CLEAR     45  34  67 W7        30.02R
AUGUSTA-BUSH   PTCLDY    45  37  73 NW8       29.97R
AUGUSTA-DANIEL CLEAR     46  33  60 NW10      29.96R
SWAINSBORO     FAIR      46  23  39 W6        30.00R
VIDALIA        CLEAR     50  34  53 NW5       30.00R
EASTMAN        FAIR      47  34  61 NW5       30.05S
HAZLEHURST     FAIR      48  32  53 NW5       30.00S
ALMA           CLEAR     49  32  52 NW9       30.01R
WAYCROSS       CLEAR     51  37  58 NW9       30.01R
JESUP          FAIR      52  39  62 NW9       29.99S
BAXLEY         FAIR      50  34  53 NW10      30.00R
BRUNSWICK      CLEAR     50  37  62 W6        29.99R
SAINT SIMONS   CLEAR     51  37  58 NW8       29.98R

$$

SCZ027-028-034-036>038-045-046-048>050-GAZ119-141-280800-
...LAKE AND SUPPLEMENTAL COASTAL OBSERVATIONS...

STATION/POSITION TIME  TEMP    WIND        PRES    WAVE   SWELL
                       AIR SEA DIR/SP/G            HT/PER HT/PER/DIR
                 (UTC) (F)     (DEG/KT/KT) (MB)    (FT/S) (FT/S/D)
UPR LAKE MARION  NOT AVBL
WINYAH BAY       NOT AVBL
LAKE MURRAY      0600   46     280/ 12/ 19 1013.2R
ACE BASIN NERRS  NOT AVBL
FORT PULASKI     0600   51 60  290/  6/ 10 1014.3R
SAPELO ISLAND    0600   53     300/ 10     1014.0R

$$

ANZ835-935-AMZ111-154-330-350-352-354-370-450-454-472-280800-
...C-MAN AND BUOY OBSERVATIONS...

STATION/POSITION TIME  TEMP    WIND        PRES    WAVE   SWELL
                       AIR SEA DIR/SP/G            HT/PER HT/PER/DIR
                 (UTC) (F)     (DEG/KT/KT) (MB)    (FT/S) (FT/S/D)
BUOY 41004       0650   53 69  340/ 19/ 25 1010.9R   5/ 5   2/ 8
BUOY 41008       0650   56 61  320/ 21/ 25 1013.4R   3/ 4   2/ 90/ 8
FOLLY BEACH CMAN 0700   48     330/  7/ 10 1012.7R
CAPERS NEARSHORE 0600   49     360/ 12/ 16   N/A
FRIPP NEARSHORE  0600   52     330/ 16/ 17 1012.9R


STATION/POSITION TIME  TEMP    WIND        PRES    WAVE   SWELL
                       AIR SEA DIR/SP/G            HT/PER HT/PER/DIR
                 (UTC) (F)     (DEG/KT/KT) (MB)    (FT/S) (FT/S/D)
5E ST. MARYS GA  0621      61                N/A     3/ 3
FRYING PAN BUOY  0650   50 65  320/ 19/ 25 1010.1R   6/ 6   3/120/ 8
BUOY 41025       NOT AVBL
CAPE LOOKOUT NC  0700   44     330/ 15/ 18 1008.3R
BUOY 41002       0650   69 69  290/ 21/ 27 1004.9F   9/ 8
BUOY 41010       0620   70 76  300/ 27/ 33 1011.5R
ST AUGUSTINE FL  0700   54 60  300/  9/ 14 1016.6R


$$


USA.gov is the U.S. government's official web portal to all federal, state and local government web resources and services.